When you browse on this site, cookies collect data to enhance your experience and personalize the content and advertising you see.
Visit our Privacy Policy to learn more. By continuing to use the site, you agree to this use of cookies and data.
  • în România
  • Lista ţărilor
  • Pe 7 zile
  • Temperatura apei
  • Hartă satelitară
  • Meteo pe hartă
  • Widget-uri
  • user-avatar
    Intrare

    Meteo pe oră la Pravokumskoe

    Astăzi, 22 Februarie, Vineri

    Timp Temperatura Precipitaţii Vânt Presiune Umiditate
    00:00 +4°C° 0 mm 2 m/s 752 mmHg 51%
    01:00 +3°C° 0 mm 3 m/s 752 mmHg 57%
    02:00 +2°C° 0 mm 3 m/s 752 mmHg 62%
    03:00 +2°C° 0 mm 3 m/s 751 mmHg 66%
    04:00 +2°C° 0 mm 3 m/s 752 mmHg 68%
    05:00 +2°C° 0 mm 3 m/s 752 mmHg 70%
    06:00 +2°C° 0 mm 3 m/s 752 mmHg 72%
    07:00 +3°C° 0 mm 4 m/s 753 mmHg 68%
    08:00 +3°C° 0 mm 5 m/s 753 mmHg 65%
    09:00 +3°C° 0 mm 5 m/s 754 mmHg 62%
    10:00 +5°C° 0 mm 5 m/s 754 mmHg 57%
    11:00 +5°C° 0 mm 5 m/s 754 mmHg 52%
    12:00 +6°C° 0 mm 4 m/s 754 mmHg 46%
    13:00 +7°C° 0 mm 3 m/s 754 mmHg 46%
    14:00 +8°C° 0 mm 3 m/s 753 mmHg 45%
    15:00 +8°C° 0 mm 2 m/s 753 mmHg 40%
    16:00 +7°C° 0 mm 2 m/s 754 mmHg 44%
    17:00 +7°C° 0 mm 3 m/s 754 mmHg 48%
    18:00 +5°C° 0 mm 3 m/s 754 mmHg 52%
    19:00 +5°C° 0 mm 3 m/s 754 mmHg 55%
    20:00 +4°C° 0 mm 3 m/s 755 mmHg 57%
    21:00 +4°C° 0 mm 4 m/s 755 mmHg 60%
    22:00 +3°C° 0 mm 4 m/s 755 mmHg 64%
    23:00 +3°C° 0 mm 3 m/s 755 mmHg 67%

    Mâine, 23 Februarie, Sâmbătă

    Timp Temperatura Precipitaţii Vânt Presiune Umiditate
    00:00 +2°C° 0 mm 3 m/s 755 mmHg 71%
    01:00 +2°C° 0 mm 3 m/s 755 mmHg 73%
    02:00 +2°C° 0 mm 2 m/s 755 mmHg 76%
    03:00 +2°C° 0 mm 2 m/s 755 mmHg 79%
    04:00 +2°C° 0 mm 2 m/s 756 mmHg 81%
    05:00 +1°C° 0 mm 2 m/s 756 mmHg 84%
    06:00 +1°C° 0 mm 2 m/s 756 mmHg 86%
    07:00 +1°C° 0 mm 3 m/s 757 mmHg 83%
    08:00 +2°C° 0 mm 3 m/s 757 mmHg 81%
    09:00 +3°C° 0 mm 4 m/s 758 mmHg 78%
    10:00 +4°C° 0 mm 4 m/s 758 mmHg 74%
    11:00 +5°C° 0 mm 4 m/s 758 mmHg 71%
    12:00 +6°C° 0 mm 5 m/s 758 mmHg 67%
    13:00 +7°C° 0 mm 4 m/s 757 mmHg 64%
    14:00 +8°C° 0 mm 4 m/s 757 mmHg 61%
    15:00 +10°C° 0 mm 4 m/s 757 mmHg 57%
    16:00 +9°C° 0 mm 3 m/s 757 mmHg 60%
    17:00 +8°C° 0 mm 3 m/s 758 mmHg 63%
    18:00 +8°C° 0 mm 3 m/s 758 mmHg 66%
    19:00 +7°C° 0 mm 3 m/s 758 mmHg 68%
    20:00 +5°C° 0 mm 3 m/s 758 mmHg 70%
    21:00 +5°C° 0 mm 3 m/s 759 mmHg 71%
    22:00 +4°C° 0 mm 3 m/s 759 mmHg 74%
    23:00 +3°C° 0 mm 3 m/s 759 mmHg 77%

    Poimâine, 24 Februarie, Duminică

    Timp Temperatura Precipitaţii Vânt Presiune Umiditate
    00:00 +3°C° 0 mm 3 m/s 759 mmHg 80%
    01:00 +3°C° 0 mm 2 m/s 759 mmHg 83%
    02:00 +3°C° 0 mm 2 m/s 759 mmHg 85%
    03:00 +4°C° 0 mm 1 m/s 759 mmHg 88%
    04:00 +3°C° 0 mm 1 m/s 759 mmHg 89%
    05:00 +3°C° 0 mm 1 m/s 759 mmHg 90%
    06:00 +2°C° 0 mm 0 m/s 759 mmHg 91%
    07:00 +2°C° 0.1 mm 0 m/s 759 mmHg 87%
    08:00 +3°C° 0.1 mm 0 m/s 759 mmHg 83%
    09:00 +4°C° 0.1 mm 0 m/s 760 mmHg 79%
    10:00 +6°C° 0 mm 1 m/s 760 mmHg 73%
    11:00 +7°C° 0 mm 1 m/s 759 mmHg 67%
    12:00 +9°C° 0 mm 1 m/s 759 mmHg 61%
    13:00 +8°C° 0 mm 2 m/s 759 mmHg 62%
    14:00 +8°C° 0 mm 3 m/s 759 mmHg 62%
    15:00 +7°C° 0 mm 4 m/s 759 mmHg 62%
    16:00 +6°C° 0.1 mm 5 m/s 759 mmHg 67%
    17:00 +3°C° 0.1 mm 5 m/s 760 mmHg 72%
    18:00 +2°C° 0.1 mm 5 m/s 760 mmHg 77%
    19:00 +1°C° 0.3 mm 5 m/s 760 mmHg 78%
    20:00 +1°C° 0.3 mm 5 m/s 761 mmHg 80%
    21:00 0°C° 0.3 mm 5 m/s 761 mmHg 81%
    22:00 0°C° 0.2 mm 4 m/s 761 mmHg 81%
    23:00 -1°C° 0.2 mm 4 m/s 761 mmHg 81%

    25 Februarie, Luni

    Timp Temperatura Precipitaţii Vânt Presiune Umiditate
    00:00 -1°C° 0.2 mm 4 m/s 762 mmHg 80%
    01:00 -1°C° 0.1 mm 4 m/s 762 mmHg 80%
    02:00 -2°C° 0.1 mm 4 m/s 762 mmHg 79%
    03:00 -2°C° 0.1 mm 5 m/s 762 mmHg 78%
    04:00 -3°C° 0 mm 4 m/s 762 mmHg 79%
    05:00 -4°C° 0 mm 4 m/s 761 mmHg 80%
    06:00 -4°C° 0 mm 3 m/s 761 mmHg 81%
    07:00 -4°C° 0 mm 4 m/s 761 mmHg 77%
    08:00 -4°C° 0 mm 4 m/s 761 mmHg 73%
    09:00 -4°C° 0 mm 5 m/s 761 mmHg 69%
    10:00 -2°C° 0 mm 5 m/s 761 mmHg 61%
    11:00 -1°C° 0 mm 5 m/s 760 mmHg 54%
    12:00 +1°C° 0 mm 6 m/s 760 mmHg 46%
    13:00 +2°C° 0 mm 6 m/s 759 mmHg 43%
    14:00 +2°C° 0 mm 6 m/s 759 mmHg 40%
    15:00 +3°C° 0 mm 6 m/s 758 mmHg 37%
    16:00 +2°C° 0 mm 5 m/s 758 mmHg 42%
    17:00 +1°C° 0 mm 4 m/s 758 mmHg 47%
    18:00 +1°C° 0 mm 3 m/s 757 mmHg 53%
    19:00 +1°C° 0 mm 3 m/s 757 mmHg 55%
    20:00 0°C° 0 mm 3 m/s 756 mmHg 58%
    21:00 -1°C° 0 mm 4 m/s 756 mmHg 60%
    22:00 -1°C° 0 mm 4 m/s 755 mmHg 61%
    23:00 -2°C° 0 mm 4 m/s 755 mmHg 63%

    26 Februarie, Marţi

    Timp Temperatura Precipitaţii Vânt Presiune Umiditate
    00:00 -2°C° 0 mm 4 m/s 754 mmHg 64%
    01:00 -2°C° 0 mm 4 m/s 753 mmHg 64%
    02:00 -2°C° 0 mm 5 m/s 753 mmHg 65%
    03:00 -2°C° 0 mm 5 m/s 752 mmHg 65%
    04:00 -1°C° 0 mm 5 m/s 751 mmHg 66%
    05:00 -1°C° 0 mm 5 m/s 751 mmHg 67%
    06:00 -1°C° 0 mm 5 m/s 750 mmHg 68%
    07:00 0°C° 0.3 mm 5 m/s 750 mmHg 70%
    08:00 -1°C° 0.3 mm 6 m/s 749 mmHg 71%
    09:00 +1°C° 0.3 mm 6 m/s 749 mmHg 73%
    10:00 0°C° 0.4 mm 7 m/s 748 mmHg 72%
    11:00 +1°C° 0.4 mm 8 m/s 748 mmHg 70%
    12:00 +1°C° 0.4 mm 9 m/s 747 mmHg 69%
    13:00 +1°C° 0.2 mm 8 m/s 746 mmHg 68%
    14:00 +1°C° 0.2 mm 8 m/s 746 mmHg 66%
    15:00 +2°C° 0.2 mm 7 m/s 745 mmHg 65%
    16:00 +2°C° 0.1 mm 6 m/s 745 mmHg 68%
    17:00 +1°C° 0.1 mm 5 m/s 745 mmHg 70%
    18:00 0°C° 0.1 mm 4 m/s 745 mmHg 73%
    19:00 -1°C° 0 mm 4 m/s 745 mmHg 76%
    20:00 -1°C° 0 mm 4 m/s 745 mmHg 78%
    21:00 -2°C° 0 mm 4 m/s 745 mmHg 81%
    22:00 -2°C° 0 mm 4 m/s 745 mmHg 83%
    23:00 -3°C° 0 mm 4 m/s 745 mmHg 84%

    27 Februarie, Miercuri

    Timp Temperatura Precipitaţii Vânt Presiune Umiditate
    00:00 -3°C° 0 mm 4 m/s 745 mmHg 86%
    01:00 -4°C° 0 mm 4 m/s 745 mmHg 87%
    02:00 -4°C° 0 mm 4 m/s 745 mmHg 87%
    03:00 -4°C° 0 mm 4 m/s 745 mmHg 87%
    04:00 -4°C° 0 mm 4 m/s 745 mmHg 87%
    05:00 -4°C° 0 mm 4 m/s 745 mmHg 86%
    06:00 -4°C° 0 mm 4 m/s 745 mmHg 85%
    07:00 -3°C° 0 mm 4 m/s 745 mmHg 80%
    08:00 -2°C° 0 mm 5 m/s 745 mmHg 76%
    09:00 -1°C° 0 mm 5 m/s 746 mmHg 71%
    10:00 0°C° 0 mm 5 m/s 746 mmHg 66%
    11:00 +1°C° 0 mm 5 m/s 746 mmHg 61%
    12:00 +2°C° 0 mm 5 m/s 746 mmHg 57%
    13:00 +2°C° 0 mm 5 m/s 746 mmHg 56%
    14:00 +2°C° 0 mm 5 m/s 746 mmHg 55%
    15:00 +2°C° 0 mm 5 m/s 746 mmHg 54%
    16:00 +1°C° 0 mm 5 m/s 746 mmHg 60%
    17:00 0°C° 0 mm 4 m/s 747 mmHg 66%
    18:00 0°C° 0 mm 3 m/s 747 mmHg 73%
    19:00 0°C° 0 mm 3 m/s 747 mmHg 76%
    20:00 0°C° 0 mm 3 m/s 748 mmHg 80%
    21:00 -1°C° 0 mm 3 m/s 748 mmHg 83%
    22:00 -1°C° 0 mm 3 m/s 748 mmHg 85%
    23:00 -2°C° 0 mm 3 m/s 748 mmHg 87%
    Arată mai mult